Regional Weather Roundup
Issued by NWS Green Bay, WI

Home | Current Version | Previous Version | Graphics & Text | Print | Product List | Glossary Off
Versions: 1 2 3 4 5 6 7 8 9 10 11 12 13 14 15 16 17 18 19 20 21 22 23 24 25 26 27 28 29 30 31 32 33 34 35 36 37 38 39 40 41 42 43 44 45 46 47 48 49 50

000
ASUS43 KGRB 281210
RWRGRB

NORTH-CENTRAL AND NORTHEAST WISCONSIN REGIONAL WEATHER ROUNDUP
NATIONAL WEATHER SERVICE GREEN BAY WI
700 AM CDT TUE APR 28 2015

WIZ005-009-010>012-018-019-281300-
NORTH CENTRAL WISCONSIN

CITY           SKY/WX    TMP DP  RH WIND       PRES   REMARKS
IRONWOOD       SUNNY     34  30  86 CALM      30.14R
MANITOWISH WTR SUNNY     31  31 100 CALM      30.16S
ARBOR VITAE    SUNNY     35  31  87 CALM      30.16S
EAGLE RIVER      N/A     32  30  92 CALM      30.16S
LAND O LAKES   SUNNY     31  29  96 CALM      30.17S
RHINELANDER    SUNNY     34  29  82 CALM      30.18R
PHILLIPS       SUNNY     31  29  92 CALM      30.17R
ANTIGO         SUNNY     32  31  96 CALM      30.18R
TOMAHAWK       SUNNY     30  29  93 CALM      30.19R
MERRILL        SUNNY     32  30  94 CALM      30.19R
$$

WIZ013-073-281300-
NORTHEAST WISCONSIN

CITY           SKY/WX    TMP DP  RH WIND       PRES   REMARKS
IRON MOUNTAIN  SUNNY     34  30  85 CALM      30.17R
MARINETTE      SUNNY     36  30  80 N6        30.18S
OCONTO           N/A     34  34 100 CALM      30.18S
$$

WIZ017-030-035>037-045-281300-
CENTRAL WISCONSIN

CITY           SKY/WX    TMP DP  RH WIND       PRES   REMARKS
MEDFORD        SUNNY     35  32  88 CALM      30.18R
WAUSAU         SUNNY     36  33  89 CALM      30.18
MOSINEE        SUNNY     37  34  87 CALM      30.19R
MARSHFIELD     SUNNY     39  34  82 CALM      30.18
WISC RAPIDS    SUNNY     35  32  88 CALM      30.20
STEVENS POINT  SUNNY     31  30  94 CALM      30.19S
WAUPACA        SUNNY     36  34  92 CALM      30.20R
SHAWANO        SUNNY     37  34  89 CALM      30.19R
CLINTONVILLE   SUNNY     34  32  93 CALM      30.19R
$$

WIZ038-039-048-051-281300-
FOX VALLEY

CITY           SKY/WX    TMP DP  RH WIND       PRES   REMARKS
NWS GREEN BAY  SUNNY     41  35  79 N3        30.19R
APPLETON       SUNNY     37  30  75 VRB5      30.19R
OSHKOSH        SUNNY     39  34  82 NW3       30.18R
FOND DU LAC    SUNNY     36  33  89 CALM      30.18R
$$

WIZ022-050-052-281300-
EAST CENTRAL WISCONSIN

CITY           SKY/WX    TMP DP  RH WIND       PRES   REMARKS
STURGEON BAY   SUNNY     37  34  87 NW8       30.20R
MANITOWOC      SUNNY     40  35  83 N6        30.17S
SHEBOYGAN      SUNNY     38  33  82 NW5       30.17R
$$

LMZ563-521-522-541>543-281300-
LAKESHORE

STATION/POSITION TIME  TEMP    WIND        PRES    VSBY  WAVE
                       AIR SEA DIR/SP/G                  HT/PER
                 (UTC) (F)     (DEG/KT/KT) (MB)    (MI)  (FT/S)
SHEBOYGAN LKSHOR 1200   41     340/  7/  8 1022.3R
KEWAUNEE LKSHORE 1200   36     300/  1/  3 1020.8R
NORTHPORT PIER   1200   39     300/  6/  7 1022.0R
SISTER BAY LKSHO 1200   37        CALM       N/A
STURGEON BAY CG  1200   37     300/  7     1022.6      6   1
CHAMBERS ISLAND  1200   45      CALM  /  4 1022.0S
MENOMINEE LKSHOR 1200   39     320/  7/  9 1022.6R
$$


USA.gov is the U.S. government's official web portal to all federal, state and local government web resources and services.